Вернуться в каталог

THORAD DELTA 1 DEB

АктивенLEO
NORAD 8182·DEBRIS·🇺🇸 United States

Запущен Nov 15, 1974 с Vandenberg Space Force Base

Loading…

Ближайшие Пролёты (ближайшие 24 часа)

TLE

СвежийSource: Space-Track

Эпоха: Sep 13, 2026, 03:08 UTC

1 08182U 74089AY  26256.13122911  .00001900  00000-0  79941-2 0  9990
2 08182 100.4017 324.9872 0133655 268.6566 119.9891 12.81952812377836

Отслеживайте THORAD DELTA 1 DEB в реальном времени с AllMySat

Download on the App Store